Location: Franzen
(48.6167°N, 15.3833°E)
Time: 09:29:44
(UTC+00:00)

Altair - Pass Details

Date: 10 August 2021
Orbit: 1501 x 1682 km, 47.2° (Epoch: 20 September)

Event Time Altitude Azimuth Distance (km) Brightness Sun altitude
Rises 00:14:25 0° 257° (WSW) 4,781 - -23.9°
Exits shadow 00:17:12 - 256° (WSW) 3,884 9.3 -23.8°
Reaches altitude 10° 00:17:33 10° 256° (WSW) 3,772 9.2 -23.8°
Maximum altitude 00:27:04 81° 172° (S) 1,555 7.3 -23.2°
Drops below altitude 10° 00:36:18 10° 86° (E) 3,665 9.8 -22.6°
Sets 00:39:18 0° 86° (E) 4,639 10.4 -22.4°
